Wind_Speed
19 19 19 19 20 19 19 20 19 18 17 16 15 14 14 14 14 14 15 16 17 16 14 13 11 8 7 7 8 8 7 8 9 9 9 12 13 13 8 12 16 15 19 20 20 17 10 7 8 9 9 5 1 1 3 3 2 0 0 1 2 2 2 2 3 3 3 4 7 6 5 5 6 4 1 2 6 5 4 4 4 5 7 12 18 26 26 24
20 20 20 20 20 20 20 20 19 18 18 17 16 15 14 14 14 14 14 14 15 15 13 13 11 8 7 8 7 6 7 8 9 11 15 12 7 12 13 12 15 20 24 23 23 21 12 6 8 8 6 3 1 2 3 3 3 2 1 0 2 3 4 3 3 3 3 5 7 6 5 3 6 6 2 4 5 4 6 5 7 9 10 14 21 26 24 23
21 20 20 20 20 20 20 20 19 18 18 18 17 16 15 15 14 14 13 12 14 14 12 12 11 8 7 7 5 5 6 7 6 8 8 7 11 15 17 16 17 24 26 24 24 21 16 13 13 9 4 2 1 3 3 2 3 3 1 1 4 4 4 3 3 3 2 7 10 6 5 4 5 5 3 6 7 5 7 7 8 10 11 14 17 21 22 22
21 21 21 21 21 21 21 20 19 19 18 18 17 18 17 16 14 13 12 11 12 12 10 10 10 8 6 5 4 5 5 4 3 4 3 1 14 19 22 19 20 24 22 21 21 16 15 16 12 6 4 2 1 2 3 3 2 2 3 3 4 2 3 3 1 2 3 7 9 7 6 6 6 4 4 10 8 4 6 7 9 13 15 16 16 18 21 20
21 21 21 21 21 21 21 20 20 19 19 19 18 18 18 17 15 13 11 10 10 10 9 8 9 7 5 6 5 5 3 1 2 3 3 1 15 24 25 21 22 22 18 19 18 13 15 14 8 3 2 3 3 2 2 5 2 2 4 6 6 4 4 3 1 4 5 6 6 7 8 6 5 3 5 12 8 4 5 6 10 14 16 18 17 17 18 17
22 21 21 22 21 21 21 20 20 20 20 20 19 19 19 18 16 13 11 9 8 8 7 7 7 7 6 6 5 4 1 0 4 3 2 4 19 26 26 23 22 19 16 19 18 13 13 9 6 4 2 2 4 4 3 4 4 3 4 5 8 7 6 2 3 5 6 7 7 7 6 6 6 3 6 9 4 3 4 6 11 13 16 20 19 16 15 14
22 22 22 22 22 21 21 21 21 21 21 21 21 21 20 18 16 14 10 8 7 7 6 6 6 5 5 6 4 3 2 4 5 2 2 8 21 26 25 23 22 19 16 18 16 10 8 8 7 5 4 3 3 4 3 3 5 4 4 5 7 7 8 4 5 5 6 8 7 6 6 7 8 6 6 6 2 4 5 7 12 14 17 20 17 15 13 13
22 22 22 22 21 22 22 22 22 22 23 23 23 23 21 19 16 13 9 7 6 7 6 5 5 5 5 4 2 2 1 5 5 7 6 13 23 25 24 20 20 22 18 17 15 9 7 8 8 4 4 3 3 4 3 2 3 5 7 7 5 5 7 5 6 6 6 5 5 7 7 7 5 5 6 6 4 4 5 8 13 14 16 16 14 15 13 12
22 22 22 22 22 22 23 23 23 24 25 25 25 24 22 19 15 11 8 7 5 6 6 4 5 4 3 2 1 1 2 3 5 8 9 17 23 24 22 17 21 25 18 14 15 12 7 6 6 5 5 4 3 3 3 1 2 6 8 7 5 6 7 6 7 8 6 4 6 8 6 2 2 4 5 6 5 5 6 10 13 15 15 14 13 14 13 13
23 23 23 22 23 23 24 25 25 26 26 27 27 25 22 18 14 10 7 6 5 5 5 4 4 2 1 1 3 2 2 1 4 8 10 19 24 23 20 17 22 25 17 12 13 12 7 5 6 4 4 3 2 2 2 3 2 4 5 6 7 9 7 7 9 8 6 4 7 8 4 2 2 2 2 5 7 7 8 12 14 15 15 14 13 12 13 13
23 24 24 24 24 25 26 27 27 28 28 28 28 26 22 18 14 10 6 5 5 5 4 4 2 2 3 3 3 3 1 2 4 9 10 17 22 22 20 19 22 23 18 11 11 13 8 7 7 2 1 2 1 2 2 3 3 5 5 6 6 5 1 6 8 8 5 3 5 6 4 2 1 1 3 7 8 8 12 13 14 15 14 13 13 12 11 12
24 24 25 25 26 26 27 28 29 29 29 29 28 26 22 18 13 8 6 5 6 4 5 4 3 6 4 3 3 7 2 6 3 9 11 15 19 19 20 20 22 23 21 12 11 15 11 8 7 2 1 1 0 2 3 3 4 5 4 3 5 6 4 4 6 7 5 3 5 7 4 2 4 4 2 9 9 8 13 13 13 14 13 13 12 10 10 12
25 26 26 27 27 28 28 29 29 29 29 28 27 25 20 17 11 7 6 6 6 6 6 3 5 7 4 1 6 8 2 5 0 7 12 14 15 16 18 20 20 21 21 15 13 17 15 9 3 1 2 1 0 2 3 5 3 4 2 2 2 5 2 2 4 5 3 3 8 7 1 4 7 6 3 10 11 10 13 13 13 12 12 12 11 10 10 12
26 27 27 28 28 29 29 29 29 29 28 27 26 23 18 13 9 6 6 7 7 8 7 5 7 6 3 4 5 2 4 3 3 8 12 14 12 10 14 17 17 18 17 12 8 13 18 12 0 1 2 1 1 3 5 5 3 2 2 2 2 2 2 1 4 7 3 3 8 4 2 4 5 6 5 9 12 12 13 13 13 12 11 12 10 10 11 12
27 28 28 29 29 30 30 29 29 28 28 26 25 20 14 11 8 3 5 9 10 10 7 6 7 4 2 5 5 1 3 3 7 11 13 15 13 7 10 15 15 15 13 10 5 8 18 12 1 1 2 1 0 3 4 3 3 2 0 2 2 1 3 2 4 7 3 3 7 3 1 5 4 5 8 9 11 12 13 12 12 12 13 13 11 10 10 11
28 29 29 30 30 30 30 29 28 28 26 24 22 15 11 9 3 4 8 11 11 10 6 5 5 4 1 3 2 1 3 3 5 9 12 16 14 7 10 13 10 11 9 9 6 5 14 10 2 2 1 2 0 0 2 3 4 3 1 2 2 1 1 2 3 6 3 4 6 4 2 3 4 3 8 9 12 12 12 12 12 12 12 13 11 10 10 10
29 30 30 30 30 30 30 29 27 27 25 22 17 10 9 8 8 12 12 12 11 8 5 2 3 2 2 4 2 0 2 3 5 5 13 17 15 10 12 10 6 9 6 5 6 3 7 6 2 3 1 1 2 2 2 2 2 3 2 1 2 2 1 0 1 4 5 5 6 7 5 4 4 1 8 10 12 12 12 13 13 11 11 12 11 10 11 11
29 31 31 30 29 29 30 28 26 25 22 19 12 8 10 11 12 13 15 14 9 6 4 1 1 1 2 4 3 3 5 6 8 3 11 15 16 13 11 8 7 9 5 1 3 2 3 2 2 2 1 1 3 4 3 3 3 2 0 2 1 2 1 2 2 4 6 5 6 7 7 9 6 1 6 9 11 11 11 13 13 12 11 11 11 11 11 12
30 31 31 30 29 29 29 26 26 23 18 16 8 6 8 8 7 8 12 11 4 1 0 1 1 1 2 3 4 7 9 8 7 4 9 13 14 12 7 9 10 9 4 2 2 3 4 2 2 3 3 3 4 5 6 5 5 6 4 4 2 2 2 3 3 4 9 6 5 8 8 11 8 4 6 8 10 11 10 10 10 11 11 10 10 10 11 12
31 31 31 31 29 28 28 25 25 19 14 14 6 4 3 4 3 3 1 3 3 3 2 4 5 2 4 4 4 8 9 4 2 3 9 12 13 11 4 5 6 4 3 5 3 3 4 3 3 5 5 5 5 7 6 5 5 6 4 3 2 1 3 4 4 4 8 6 6 10 10 11 9 6 7 8 9 9 10 11 10 11 12 11 11 11 13 13
32 31 30 30 29 28 26 24 23 14 9 12 7 3 2 2 2 3 4 3 5 6 6 6 6 5 7 7 5 5 4 2 3 1 8 12 12 10 2 2 5 2 2 5 4 2 3 5 5 4 6 6 5 6 5 4 4 3 4 2 0 2 4 5 4 4 6 6 6 8 8 10 9 6 7 9 10 11 12 14 13 14 14 11 11 13 13 11
31 31 31 29 28 27 25 24 19 9 6 8 7 4 2 2 4 3 3 4 6 5 5 5 4 6 9 9 8 3 2 2 4 4 5 8 6 6 1 4 6 3 1 3 4 3 3 4 4 4 6 4 2 4 4 3 3 2 3 2 1 2 4 5 4 3 4 5 3 5 7 10 10 7 8 11 12 12 13 15 14 15 14 12 12 12 12 11
31 31 31 28 27 25 23 22 12 5 6 5 5 4 2 7 9 3 2 1 6 4 3 3 3 4 6 6 5 4 4 2 1 4 4 6 3 4 4 4 5 4 2 3 5 6 4 4 5 5 5 5 2 3 5 2 1 3 3 3 2 3 1 2 4 3 3 5 3 5 5 7 7 5 8 11 13 11 11 12 10 11 14 15 14 11 11 13
32 32 30 28 25 22 22 17 5 4 7 2 5 5 7 10 9 3 2 0 4 4 3 4 4 4 3 2 4 6 3 3 3 2 4 7 4 2 4 4 5 4 2 4 6 6 4 5 4 5 5 6 3 2 5 2 2 2 4 5 3 3 3 4 4 4 1 3 4 4 1 5 4 6 7 8 10 10 9 10 9 10 12 12 11 9 10 12
32 31 28 27 23 21 20 10 2 7 7 2 4 5 10 11 7 3 2 2 3 5 3 2 1 2 3 1 3 4 1 1 3 3 4 7 6 3 2 2 3 3 4 5 6 3 5 5 4 6 4 5 4 3 4 5 2 3 3 7 7 5 6 5 3 5 4 4 3 4 2 5 4 6 7 6 9 11 9 11 13 12 12 11 11 11 11 11
32 29 26 25 22 21 15 3 3 10 4 4 3 8 10 9 5 2 3 4 2 4 2 1 0 1 2 1 2 2 3 1 3 1 2 5 6 4 2 1 1 3 5 4 4 2 2 2 4 5 4 5 5 4 4 6 4 2 4 8 9 7 6 5 1 2 1 2 4 2 4 4 5 4 7 6 9 11 10 12 15 13 12 12 12 12 12 12
31 28 26 23 21 19 9 0 7 8 2 1 6 9 10 8 3 3 3 4 2 2 1 0 1 1 1 1 1 4 2 4 2 4 4 3 1 3 4 3 1 2 3 4 1 3 2 1 3 3 4 4 4 4 5 7 6 3 5 7 9 8 7 6 4 3 3 2 4 1 4 1 4 4 6 6 8 9 9 12 14 14 14 14 14 13 13 13
29 26 25 22 18 13 5 4 8 3 2 5 8 10 10 5 0 3 4 2 2 2 1 1 2 1 2 2 3 4 2 3 2 1 3 8 5 2 4 4 5 4 2 5 3 4 2 4 4 4 4 4 5 6 7 8 5 5 6 7 7 8 7 5 5 4 2 2 4 4 2 1 4 5 2 4 7 9 12 14 14 15 15 16 15 15 15 14
28 26 23 19 13 7 4 6 5 1 4 8 9 12 9 2 2 3 4 1 2 2 0 1 1 2 2 3 4 3 1 1 3 2 4 9 8 4 3 3 5 5 2 5 5 5 1 4 7 6 4 5 6 7 8 9 6 5 7 6 5 4 4 4 5 4 1 1 4 6 2 2 4 5 1 4 6 10 14 13 13 14 14 16 16 16 15 14
28 24 19 16 9 4 4 5 3 4 8 10 12 12 5 2 4 4 2 1 1 1 1 1 1 1 3 4 3 4 3 2 2 3 4 6 8 7 2 1 5 5 1 4 2 3 3 2 4 5 3 5 6 5 7 11 8 4 5 4 4 2 3 3 2 3 2 2 6 6 6 5 1 4 1 2 4 8 11 10 11 13 13 15 16 15 16 14
26 20 15 13 8 3 3 3 4 7 9 11 14 9 2 2 4 4 1 1 1 2 2 2 2 1 4 5 2 3 4 4 5 5 5 5 8 9 6 3 4 5 3 4 2 4 6 4 1 1 1 1 1 1 1 4 5 4 3 4 4 1 3 4 4 2 3 4 6 5 5 7 2 3 2 5 9 9 7 9 12 15 15 15 15 15 15 15
22 16 12 11 8 4 2 3 6 8 10 12 11 4 4 3 3 2 1 2 2 2 1 1 3 2 3 4 4 4 4 4 5 6 5 4 6 7 6 4 2 2 1 2 1 3 3 2 3 4 2 6 4 1 3 3 3 5 4 5 4 1 1 1 1 1 3 4 4 2 2 4 3 4 2 6 9 12 10 8 9 13 14 14 15 15 14 13
19 15 13 11 8 6 5 6 9 9 11 11 6 4 5 4 3 2 3 2 1 2 2 1 2 3 4 5 3 4 6 5 5 6 4 4 6 4 4 6 4 2 3 1 1 2 0 2 7 7 4 6 5 2 1 3 3 4 5 5 5 2 2 3 2 1 2 4 3 2 1 1 2 1 5 7 8 9 10 9 7 8 11 13 13 13 14 13
16 14 14 12 10 9 7 7 7 8 9 7 4 4 6 5 1 3 3 2 2 3 3 2 3 4 6 5 1 1 6 5 4 6 5 4 5 4 5 8 9 3 2 3 2 2 3 1 5 5 3 5 4 1 2 2 1 2 4 5 5 4 4 3 3 3 3 3 2 3 3 3 3 1 3 6 7 9 11 12 10 6 4 8 10 9 11 13
13 13 15 16 14 12 10 8 6 6 6 5 6 5 6 3 2 2 2 4 3 3 4 3 5 6 5 5 4 3 4 3 4 7 7 5 4 4 4 6 8 5 3 3 1 1 4 1 5 5 3 3 4 3 1 3 2 2 2 5 4 4 4 2 3 5 4 3 0 2 3 2 3 2 5 8 9 12 14 14 14 14 11 3 6 9 10 12
11 12 16 20 19 14 12 11 7 5 4 5 7 5 3 1 1 1 2 3 2 3 4 5 6 6 4 4 5 7 5 4 3 5 5 4 4 5 5 4 5 6 3 2 1 2 3 1 6 7 5 4 4 4 1 4 2 2 2 3 3 4 5 4 1 0 3 5 2 1 1 4 2 1 9 13 12 15 17 16 14 13 13 10 3 6 10 11
10 8 11 21 25 17 11 10 8 6 4 6 8 4 1 0 1 2 3 3 3 2 3 4 4 3 2 3 5 7 6 4 4 4 3 3 3 5 6 4 4 5 2 2 1 1 3 1 5 5 5 7 6 2 0 3 2 2 2 2 3 2 4 3 2 2 4 4 1 2 3 5 3 0 9 15 14 15 16 16 15 14 14 12 9 7 7 11
8 4 5 18 26 18 10 10 10 6 4 6 7 4 2 2 2 2 4 3 2 3 5 3 2 2 2 3 3 7 5 3 4 4 3 3 2 2 5 4 3 6 6 2 2 1 2 1 4 3 2 8 7 4 2 7 6 4 2 1 1 3 2 1 3 2 2 3 1 3 3 3 3 3 8 13 13 13 13 14 15 16 15 12 11 12 10 9
8 3 3 18 25 15 10 11 9 5 7 6 4 3 1 2 4 5 5 3 1 3 5 2 2 4 4 3 2 4 7 4 2 3 2 2 1 2 4 2 4 7 8 4 3 1 1 3 2 6 5 5 6 6 4 7 7 5 4 4 3 2 2 1 2 3 3 3 3 2 3 3 2 4 7 9 10 10 12 12 12 13 14 12 11 12 11 9
6 3 3 20 20 9 10 11 7 7 6 3 2 1 1 2 4 7 7 6 4 3 3 3 3 4 4 4 3 3 6 5 3 3 2 2 1 1 5 3 4 6 6 5 4 1 2 3 1 6 7 4 3 3 3 3 5 5 5 6 5 3 1 1 2 2 2 4 4 3 3 1 3 4 6 7 7 8 10 11 10 11 12 12 12 12 12 8
5 3 5 21 16 4 9 10 6 5 3 3 2 1 3 3 4 8 9 7 5 4 4 4 5 4 3 4 4 2 3 4 4 3 3 3 2 1 4 4 4 4 3 5 5 3 2 2 2 3 5 5 2 1 2 5 6 6 4 4 3 3 2 3 2 2 2 3 3 4 5 1 4 3 5 6 6 7 9 9 9 11 12 12 12 13 13 12
5 3 7 20 13 9 12 7 3 3 3 3 3 2 4 4 4 7 7 7 5 4 4 4 5 4 3 3 3 2 3 3 4 3 3 3 3 1 5 6 5 3 2 3 3 2 1 3 4 2 2 1 2 1 4 5 5 6 6 4 2 2 3 4 2 1 3 3 1 3 5 2 4 3 5 6 6 7 8 8 8 10 11 11 13 14 14 15
3 1 9 20 11 11 12 5 3 5 3 2 1 2 4 4 4 6 6 7 5 3 5 5 3 4 4 3 3 3 4 3 4 3 2 2 4 2 6 7 6 3 3 2 2 2 2 3 3 2 3 4 4 2 5 5 4 5 5 5 4 3 2 2 3 2 2 3 2 3 4 2 3 5 5 5 6 8 8 9 10 9 10 11 13 14 15 15
1 2 5 18 16 12 8 3 2 4 3 3 3 4 5 3 5 7 6 6 5 3 4 4 3 3 3 3 4 3 2 3 3 3 2 2 2 4 7 9 7 5 3 2 1 0 1 2 3 3 3 4 4 3 4 5 5 3 3 5 5 6 5 2 1 3 3 0 0 3 3 3 3 5 6 6 8 10 10 11 11 10 10 11 12 13 14 15
3 0 3 13 20 13 5 3 4 4 2 4 5 5 5 3 4 5 5 5 5 3 3 2 3 3 3 4 5 5 5 4 3 1 2 2 1 3 7 9 7 4 5 5 2 2 2 2 3 4 3 1 1 2 2 3 4 2 3 6 6 7 8 3 2 4 2 1 0 3 2 4 5 5 8 9 9 10 11 12 11 11 11 11 11 12 12 13
3 3 2 7 11 8 3 1 4 4 3 3 4 4 5 4 3 4 5 5 5 5 4 2 3 3 5 6 7 7 8 7 4 3 3 2 2 2 4 7 7 7 9 12 8 3 4 3 3 5 5 4 5 4 3 1 2 2 3 6 6 6 6 3 3 3 1 1 1 2 2 4 6 6 9 9 9 9 10 11 11 12 12 12 11 11 11 11
3 2 1 2 4 4 4 5 4 3 2 3 3 3 4 3 3 4 5 3 3 4 4 3 4 4 4 5 6 4 6 6 6 4 2 2 2 3 4 4 7 10 10 10 7 3 5 3 4 5 4 2 4 1 3 3 2 1 3 4 5 6 6 4 3 1 3 4 2 4 1 3 5 6 8 7 7 7 8 10 10 10 11 12 11 11 13 13
3 2 1 1 1 2 2 3 4 5 5 3 3 2 3 4 4 3 3 2 3 3 3 4 6 5 4 4 5 3 3 4 5 3 2 2 2 4 5 4 5 9 8 6 5 4 5 1 1 3 3 3 2 2 4 3 2 3 3 2 4 5 4 2 1 3 4 4 3 5 3 2 2 5 7 5 5 6 6 7 7 8 10 12 12 13 14 14
2 2 1 1 3 2 1 3 3 6 7 4 3 3 3 4 4 2 2 3 4 4 4 4 4 5 5 4 5 4 2 2 2 1 1 1 2 2 3 3 5 6 6 5 4 3 5 1 0 3 2 3 3 3 3 3 3 4 4 4 4 5 4 3 4 4 4 4 5 4 5 4 1 3 4 4 4 4 4 6 7 9 12 12 13 13 13 12
2 1 1 3 4 2 2 4 4 5 5 4 3 3 2 4 4 3 2 3 2 3 4 5 3 3 5 5 6 5 4 6 5 3 3 2 1 0 1 1 2 4 6 4 3 3 3 2 0 3 3 2 4 4 3 2 2 3 5 6 5 5 3 2 2 1 1 1 1 1 2 3 1 2 3 3 3 3 6 7 8 8 10 11 12 12 12 12
3 1 1 4 3 4 3 3 3 4 4 3 2 2 2 3 3 1 3 3 2 1 1 5 5 2 4 6 6 4 5 6 7 6 6 5 3 3 1 2 3 1 4 3 2 3 3 2 1 4 4 2 3 2 4 4 1 1 3 5 4 2 1 2 3 2 1 1 2 2 2 1 3 4 3 3 4 6 7 7 7 6 8 10 11 12 12 11
3 1 2 4 3 3 2 2 3 4 2 2 1 1 2 3 2 1 3 4 4 3 1 6 6 3 4 5 3 2 6 7 6 5 5 4 3 3 3 3 4 3 1 1 2 2 2 3 1 2 2 2 3 3 4 3 4 1 2 3 2 2 2 3 4 3 2 1 0 1 1 2 4 4 4 4 5 5 5 5 5 5 6 7 9 10 11 11
Wind_Direction
349 348 348 347 347 348 350 350 349 349 351 352 349 345 343 342 340 340 340 343 345 344 340 332 325 313 290 280 287 295 304 291 290 281 247 262 250 222 211 188 184 168 160 169 168 152 133 140 151 143 142 154 205 159 178 218 223 196 180 226 267 227 215 221 204 184 149 152 148 165 185 144 138 135 131 91 67 76 73 60 82 62 80 107 119 133 142 146
347 346 345 345 345 345 346 347 347 348 349 349 349 346 343 342 339 339 339 341 345 345 341 333 326 314 297 293 300 307 307 302 295 273 253 258 237 203 193 175 179 173 164 168 167 153 140 155 163 145 129 138 180 159 170 195 187 216 276 233 250 222 219 233 208 185 138 147 147 160 178 153 138 137 161 138 115 124 112 99 100 91 99 111 124 137 145 146
346 345 344 344 343 343 343 344 346 346 348 348 348 346 344 342 338 338 337 339 344 346 343 338 333 321 310 306 320 329 309 315 296 265 270 246 205 185 169 167 178 173 168 172 171 162 155 157 156 141 116 127 170 163 181 193 166 205 242 262 247 228 253 275 207 194 123 137 144 154 165 154 146 144 168 143 135 154 148 143 130 125 130 129 136 143 146 147
346 344 343 343 342 341 342 344 345 345 347 348 348 347 344 341 337 334 333 336 342 345 342 341 341 336 328 327 342 339 315 325 283 246 349 202 187 169 158 166 173 168 168 172 170 165 152 145 146 138 108 120 177 161 186 214 171 180 193 233 248 232 288 294 202 130 94 127 141 148 152 150 153 148 159 142 138 183 185 173 151 146 145 142 148 149 149 151
346 344 343 342 341 340 342 345 345 345 346 347 349 347 343 340 336 332 329 330 339 342 338 334 342 346 344 346 350 337 337 16 284 259 349 193 173 161 156 164 168 159 158 163 157 149 144 140 140 123 101 131 160 158 217 221 205 241 226 244 261 281 293 285 100 113 111 109 123 150 160 150 144 142 167 160 158 188 183 168 151 148 148 149 153 152 153 155
344 343 342 341 341 340 342 345 346 346 348 348 348 345 342 339 335 331 325 324 334 335 329 321 329 340 341 348 348 341 41 203 283 277 354 157 164 158 154 162 164 150 149 156 145 137 137 134 142 140 135 132 156 186 234 215 194 249 257 251 255 258 260 245 123 139 130 128 145 162 158 132 138 148 177 178 167 128 135 142 146 149 151 150 152 154 158 160
342 343 343 342 341 340 342 345 347 348 348 348 346 344 341 338 334 328 321 318 325 325 315 306 312 322 336 344 338 11 80 265 266 184 116 151 159 155 153 163 165 154 150 150 141 139 134 136 160 152 135 131 159 203 245 222 192 227 259 261 254 242 242 225 147 151 141 148 154 143 143 156 162 156 168 181 132 103 106 130 144 148 151 151 152 157 161 162
342 343 342 341 340 341 343 345 347 349 348 347 345 344 339 336 332 324 318 310 313 316 295 283 299 300 323 340 334 15 332 259 219 160 142 154 157 154 158 163 168 167 157 152 152 148 133 145 169 149 135 171 171 188 231 246 208 219 242 260 260 246 240 215 154 146 143 146 131 134 160 179 173 137 158 172 137 122 113 132 144 145 151 155 157 159 161 163
342 342 340 339 339 341 343 345 348 349 347 346 344 342 338 335 330 322 311 300 304 302 279 261 286 293 316 357 48 16 267 246 182 168 151 158 161 161 168 166 167 172 163 161 161 154 151 158 177 162 153 182 182 195 207 202 228 215 232 257 265 268 246 186 155 151 148 140 135 151 161 165 145 112 152 169 146 133 125 140 146 149 157 161 162 163 163 165
340 340 339 338 338 339 342 346 348 348 347 345 343 340 338 335 327 318 301 290 292 285 260 236 271 291 167 81 86 141 238 339 176 177 159 165 167 166 175 172 168 171 163 164 165 161 163 166 178 154 136 170 187 231 188 165 247 241 248 266 264 274 251 172 152 151 138 140 154 157 143 112 147 142 180 170 149 142 136 147 152 154 163 165 166 165 166 169
340 339 338 338 338 338 341 346 347 347 346 343 342 339 337 332 322 311 291 270 274 269 219 218 257 136 146 114 116 193 276 0 187 178 168 172 174 176 184 180 174 171 161 159 176 174 163 171 180 131 92 204 199 273 242 206 289 294 291 302 301 321 300 143 140 150 134 142 164 131 100 67 115 244 223 160 150 152 146 152 159 160 166 167 167 165 168 172
339 338 337 339 339 339 342 346 346 347 345 342 341 340 336 329 318 299 273 252 259 233 190 204 160 145 130 90 207 219 22 24 164 176 177 179 182 189 193 188 185 181 172 164 184 185 174 177 177 143 208 190 161 273 288 274 300 292 290 319 321 15 63 118 124 158 150 135 161 122 80 293 217 234 200 148 148 151 150 155 163 164 168 169 167 165 170 175
338 337 339 341 341 341 343 346 347 347 344 342 341 341 334 324 313 285 252 230 229 195 175 167 154 156 125 48 240 224 275 0 293 181 180 183 189 195 197 195 194 193 187 179 185 190 187 192 172 136 219 82 241 259 324 310 311 296 293 98 346 14 39 168 123 158 144 121 166 149 147 254 221 226 169 145 150 149 154 161 166 168 169 172 171 166 173 177
339 339 341 343 344 343 345 346 347 347 344 343 343 341 333 325 315 283 232 203 186 172 168 141 148 151 128 262 269 229 242 276 237 201 186 184 182 189 202 200 197 196 194 184 177 191 193 202 220 36 252 180 232 306 341 327 349 337 319 51 56 26 277 237 124 154 134 145 174 148 301 264 239 214 165 150 154 153 161 166 168 172 171 175 175 168 174 181
341 342 344 345 345 345 346 347 347 347 345 345 347 343 337 333 324 291 190 177 164 162 160 135 156 155 46 283 279 164 222 229 222 216 204 193 176 173 199 193 192 191 191 181 158 184 190 191 100 57 272 310 26 343 348 337 354 12 343 320 337 131 270 325 132 167 143 149 179 148 284 272 271 192 155 156 161 157 167 172 172 176 174 177 178 171 175 183
344 345 346 345 345 345 345 347 348 347 345 348 352 352 354 350 8 107 140 154 152 152 143 129 175 181 64 289 266 143 220 238 248 222 208 204 192 178 170 165 170 178 186 192 186 184 174 168 135 176 255 340 133 30 10 2 348 354 98 234 280 122 277 332 138 187 156 119 182 210 243 277 294 178 147 158 168 163 170 179 179 181 179 179 181 177 176 182
346 346 346 345 346 345 344 346 348 346 346 353 2 15 29 43 92 107 119 129 131 127 104 116 179 190 262 280 271 170 251 287 311 228 201 207 201 172 147 139 137 154 162 192 203 197 156 162 169 169 307 0 143 107 68 343 301 324 21 127 251 156 161 254 167 197 170 137 185 224 246 259 299 154 153 164 172 170 175 183 185 186 185 182 182 180 180 183
345 345 345 344 345 344 343 345 347 346 346 357 17 53 64 78 96 104 115 119 117 104 67 31 88 129 258 290 285 273 292 309 330 288 199 200 196 180 151 132 119 129 122 92 170 165 158 182 137 137 316 155 147 117 147 218 195 178 111 98 339 351 87 169 212 195 171 163 189 206 240 256 274 162 166 174 174 179 183 184 185 188 189 186 185 184 183 186
344 343 342 341 343 342 341 344 347 345 345 358 28 97 86 86 88 95 116 120 117 105 23 239 171 153 223 264 284 296 307 307 313 271 192 178 184 189 150 121 120 117 123 95 112 170 160 102 113 180 214 180 176 162 175 199 158 144 151 131 117 0 312 223 245 216 177 170 197 199 221 242 245 203 183 183 180 185 184 181 185 189 192 190 188 189 187 190
343 342 340 339 339 339 339 342 345 344 346 357 19 126 78 44 41 16 92 145 198 211 229 212 194 248 284 268 295 318 324 320 290 229 181 169 167 176 154 101 101 83 126 144 154 188 147 142 196 194 181 186 198 189 184 179 142 126 122 118 135 175 284 263 264 239 183 173 219 211 218 235 234 211 193 184 181 187 185 185 189 189 194 194 190 192 191 194
342 340 339 336 335 335 336 339 343 344 349 1 22 99 98 53 47 307 302 294 255 229 233 228 206 242 272 268 297 337 353 358 329 328 173 171 153 155 198 51 97 88 182 155 140 126 136 187 205 177 175 186 188 185 180 161 140 123 131 138 294 198 254 257 252 248 183 182 234 222 227 245 237 213 194 181 181 194 193 189 192 191 194 196 192 194 193 192
341 340 338 334 332 332 333 337 342 342 353 18 48 88 137 20 354 281 262 307 290 247 227 244 233 256 270 269 271 274 52 13 327 325 172 158 139 159 173 66 121 159 208 129 116 132 180 213 198 178 179 165 133 150 152 154 152 131 130 136 226 240 273 278 280 306 171 188 252 212 215 247 242 213 193 187 188 200 201 195 193 190 192 197 196 194 190 185
340 339 338 333 330 329 331 337 340 346 1 24 77 85 9 351 355 340 171 273 295 285 217 218 210 243 277 280 240 169 120 155 274 298 193 143 132 178 130 100 143 144 131 136 135 156 193 238 210 187 157 141 156 134 122 103 143 150 138 136 213 248 299 283 293 353 142 194 221 169 199 256 247 213 200 197 194 200 205 202 198 193 196 201 199 194 188 186
340 340 338 334 332 329 332 338 344 12 354 9 104 56 358 349 357 24 114 150 305 297 236 206 198 209 247 279 172 145 133 183 183 260 197 143 117 159 143 141 141 129 172 166 140 154 213 244 192 158 146 157 190 143 126 136 271 227 174 162 190 211 201 227 284 355 51 247 232 146 40 302 238 208 211 197 194 199 196 195 201 206 208 206 201 199 196 193
341 342 340 338 335 330 334 343 45 6 347 148 110 5 353 352 349 26 78 52 327 296 269 215 231 214 229 228 169 175 134 184 215 238 194 146 130 130 167 152 125 166 195 143 132 161 247 244 141 129 151 153 172 216 173 164 220 288 212 184 179 177 210 238 343 14 21 329 269 135 65 306 268 223 216 186 188 195 186 189 199 206 209 207 205 205 203 199
343 343 341 339 335 332 340 17 5 350 351 143 35 345 349 352 345 85 93 48 346 293 311 105 207 211 242 290 163 148 72 329 256 268 96 134 134 113 128 190 69 176 176 132 143 185 254 237 136 142 172 155 172 228 208 163 152 288 241 189 174 170 207 234 72 52 59 277 279 138 141 271 302 258 226 191 191 197 187 192 199 201 203 204 206 206 204 200
345 345 342 338 336 338 344 338 331 345 94 88 344 343 345 346 357 124 81 37 347 296 348 272 310 118 242 303 93 101 117 258 307 38 43 69 54 72 113 186 180 156 167 114 129 220 182 125 111 137 163 163 186 231 211 163 140 243 235 166 159 176 204 215 166 180 225 269 313 349 133 217 304 271 234 188 189 203 201 202 201 200 201 202 205 205 204 201
346 346 341 336 339 343 336 321 330 349 70 339 335 343 341 334 98 116 81 62 275 297 84 262 305 313 295 351 55 90 193 240 82 344 349 48 35 52 106 190 181 162 145 114 159 252 178 156 181 167 163 181 206 219 193 161 160 228 205 146 149 177 186 179 165 199 240 27 318 300 119 139 280 286 278 165 185 213 215 212 206 200 199 200 203 204 203 202
348 347 340 339 348 3 359 331 324 325 342 339 340 339 334 334 87 75 78 94 285 319 67 318 335 304 329 27 24 20 338 15 100 256 336 32 23 37 114 199 157 133 98 111 169 241 236 185 184 150 156 201 222 221 177 164 196 209 165 140 135 149 141 130 154 181 88 69 258 256 180 147 278 292 47 141 197 221 218 217 211 203 199 199 201 203 202 201
350 349 342 344 356 20 0 328 328 352 341 341 338 332 331 83 72 66 65 62 14 305 264 336 319 308 50 69 10 356 31 15 19 38 25 18 13 27 56 191 93 101 39 51 121 237 299 254 158 122 168 215 224 227 186 185 199 163 121 113 100 79 63 71 96 110 81 279 256 239 191 144 296 289 226 170 248 240 223 218 213 206 202 200 200 201 200 199
352 353 347 348 353 0 352 338 349 350 338 336 335 335 36 68 61 88 99 26 15 326 349 351 312 10 83 106 71 357 38 16 354 35 43 11 23 30 17 3 47 58 16 8 4 303 337 15 81 235 260 9 23 301 258 204 187 139 99 100 110 10 25 44 0 61 129 256 270 246 170 131 146 278 296 303 315 315 273 235 218 209 204 201 200 201 201 199
356 356 349 344 337 325 328 328 330 333 331 332 337 6 89 49 35 86 287 337 10 334 347 302 308 18 87 94 59 14 41 34 6 41 62 31 41 52 46 26 13 83 72 294 303 326 337 21 329 303 347 33 37 335 339 16 94 135 128 110 129 290 29 128 286 149 180 246 265 250 130 126 204 228 287 308 332 341 318 279 246 223 210 203 200 199 199 197
356 352 350 345 333 324 320 316 316 319 321 326 346 53 80 76 46 334 307 334 14 318 319 286 333 43 78 69 51 36 50 36 358 30 54 59 58 53 43 28 20 120 157 208 50 29 288 308 351 355 350 11 43 76 353 25 67 138 152 139 149 154 126 181 230 129 210 243 254 280 247 200 231 271 333 328 335 343 340 330 297 244 219 212 205 201 198 196
356 354 358 359 356 349 337 323 313 312 321 340 38 63 64 80 18 334 336 286 274 332 341 345 10 42 59 50 0 84 66 38 13 42 42 46 48 12 358 13 14 34 113 76 73 86 129 199 354 10 336 348 26 65 195 174 139 189 179 144 149 164 150 178 206 163 179 228 298 309 236 170 148 167 342 335 331 350 3 -0 356 345 268 219 204 203 203 201
1 10 17 13 8 2 352 340 322 324 346 36 72 67 65 71 286 322 328 281 289 328 330 2 43 50 35 14 357 29 84 79 39 52 49 52 55 5 341 350 358 11 56 64 51 67 115 187 309 313 286 347 3 312 244 131 163 229 156 115 136 176 154 129 177 172 158 143 35 271 226 194 180 193 4 -0 353 6 11 7 11 9 351 312 198 198 202 206
16 32 29 15 4 357 352 345 332 343 12 70 71 56 72 102 278 274 277 291 307 308 332 11 35 46 19 357 2 3 31 71 58 53 44 54 62 16 349 311 337 13 51 91 76 31 84 277 312 324 318 346 353 299 355 92 166 212 102 140 192 160 123 106 150 219 88 124 172 271 321 333 301 257 355 356 360 10 11 7 8 5 359 357 313 217 207 206
22 41 32 12 2 355 354 352 341 346 23 78 73 60 93 180 267 242 275 297 296 322 57 50 19 35 30 26 10 343 356 37 40 50 37 27 37 3 346 308 319 10 28 109 105 67 106 207 309 349 335 310 324 308 337 43 68 125 115 226 235 114 105 108 119 12 49 128 194 10 36 3 17 263 337 348 357 5 7 4 2 3 5 1 344 311 250 216
12 39 42 6 354 348 353 351 342 353 53 71 67 73 85 353 334 300 302 308 307 24 63 83 45 54 74 75 30 347 359 27 14 43 60 26 26 3 354 319 323 355 344 16 86 21 76 87 293 325 294 293 330 36 13 345 9 79 115 262 82 112 146 89 128 146 116 143 142 35 48 26 26 325 333 345 347 351 356 359 4 6 2 355 343 330 300 241
14 53 31 354 349 348 357 350 346 32 70 65 53 62 53 332 338 335 326 338 39 54 52 52 59 61 52 79 94 16 31 57 30 47 67 32 43 47 29 334 305 343 343 10 80 312 23 90 285 302 313 313 355 39 20 327 341 24 37 11 28 107 157 149 136 154 147 156 160 78 31 16 324 316 338 335 329 346 354 352 -0 4 359 354 346 337 320 268
23 85 350 348 349 347 360 8 28 48 60 73 82 59 12 322 329 339 353 20 43 61 60 34 35 73 65 56 80 54 43 46 44 63 61 29 58 19 25 17 312 330 351 20 58 54 9 74 47 310 331 14 34 19 25 10 1 16 32 24 2 348 5 65 55 65 117 145 157 121 75 344 297 327 339 325 329 356 358 348 351 357 359 359 354 350 344 315
33 89 333 346 353 6 19 32 50 44 59 57 36 18 16 21 350 343 355 21 44 62 81 79 58 70 93 61 46 40 54 46 33 64 73 32 54 19 5 11 316 306 11 25 21 35 29 75 88 340 356 53 83 321 32 64 57 58 60 33 353 344 43 90 72 0 43 101 140 135 121 255 300 347 344 339 -0 6 356 351 351 355 360 2 3 2 2 -0
50 94 336 352 15 73 61 51 12 34 85 50 26 25 17 29 11 346 350 13 43 58 51 63 62 51 63 71 53 45 77 65 16 45 92 42 55 44 321 332 318 297 71 56 330 318 89 97 76 40 5 118 201 312 34 48 60 67 59 30 357 14 66 111 135 308 10 31 32 111 107 212 273 350 359 359 15 8 358 357 358 0 0 4 11 11 12 16
63 124 354 5 33 88 71 48 349 34 53 0 27 33 17 34 15 354 4 18 24 43 35 27 35 48 48 51 66 68 72 69 33 47 113 50 36 359 317 335 354 10 60 61 311 320 53 66 54 22 324 303 275 321 18 17 35 50 28 16 14 350 339 154 162 156 66 21 353 61 93 198 266 346 1 7 15 13 9 3 2 6 3 5 15 19 20 22
79 215 348 13 38 81 85 80 62 53 25 1 32 14 1 41 38 16 20 21 13 37 51 24 12 45 48 39 65 73 63 85 67 41 78 90 25 343 348 2 15 32 45 19 279 311 43 53 72 66 17 350 333 335 349 356 21 42 352 353 5 357 1 40 84 61 65 8 221 111 130 211 270 340 358 10 18 18 14 6 1 6 9 8 14 21 24 25
46 180 280 6 32 59 95 158 122 97 67 44 45 18 1 20 30 23 33 36 30 52 75 29 9 42 46 45 59 46 39 79 100 31 48 59 332 334 358 1 6 31 38 25 28 101 81 67 97 110 121 163 207 259 270 313 352 15 348 348 358 7 12 29 67 52 62 256 144 123 160 268 301 358 12 9 17 20 13 8 5 5 8 9 13 20 24 26
67 44 306 346 18 42 59 83 93 94 95 76 52 16 11 12 342 358 41 49 26 42 70 32 5 39 39 51 65 39 27 48 68 71 61 21 328 318 346 358 4 11 22 27 29 71 96 62 71 108 130 164 179 210 247 300 7 7 350 349 352 358 4 45 80 73 128 67 338 195 153 331 326 6 19 7 15 23 12 10 10 3 3 7 10 16 22 26
96 62 3 336 353 14 27 20 31 59 86 102 85 8 358 11 346 355 32 49 7 35 66 28 19 50 48 62 85 51 18 32 42 51 48 0 313 305 335 13 12 1 11 21 15 59 96 50 35 76 89 155 169 227 324 7 40 345 346 349 338 341 1 50 75 145 133 93 293 255 75 13 327 1 16 1 11 28 20 14 8 357 359 5 6 11 20 23
83 121 200 134 42 19 32 9 15 51 55 61 85 53 3 25 42 17 0 6 10 35 74 35 18 42 71 98 112 92 34 35 29 18 16 7 351 338 344 359 359 359 15 17 0 68 102 69 26 83 35 349 356 349 0 28 6 317 309 297 301 323 354 33 256 217 142 130 233 267 312 312 315 4 6 357 11 31 33 17 1 358 2 5 8 12 18 18
69 89 306 44 86 124 88 0 18 56 50 41 55 50 27 34 37 356 314 10 14 10 65 84 13 19 58 86 106 107 119 107 53 324 216 47 10 17 13 347 336 358 26 25 4 65 103 92 58 116 69 8 346 344 14 35 3 321 288 262 261 278 280 262 255 229 178 183 217 257 294 278 282 6 1 19 20 29 45 24 10 12 7 5 10 13 15 13
74 110 316 49 61 39 15 11 31 57 38 29 49 32 32 46 22 346 357 57 56 349 38 104 107 41 51 64 86 107 161 155 143 183 170 119 18 82 110 258 290 350 16 26 0 26 85 118 156 98 79 349 317 342 354 327 273 276 279 273 266 274 283 283 284 265 155 277 281 322 311 276 279 347 14 54 37 39 50 31 20 18 6 4 9 7 7 8
92 160 131 97 55 1 7 12 36 64 34 19 49 16 8 19 356 355 20 32 86 24 37 144 142 73 41 51 79 123 185 165 152 180 175 152 171 191 170 187 183 17 8 16 351 5 69 102 20 70 76 273 271 312 302 292 295 301 312 313 292 275 303 296 284 269 220 303 330 4 19 314 311 337 15 54 43 42 43 31 23 16 5 7 7 1 359 2
78 67 51 101 83 1 16 24 26 65 64 344 3 26 19 350 314 118 78 3 8 32 119 155 140 79 51 53 60 190 206 189 175 186 179 156 146 127 91 95 121 118 124 105 29 357 98 107 69 85 91 264 263 259 274 335 30 20 337 0 325 286 324 313 291 283 259 176 133 222 237 293 315 343 13 26 38 44 36 25 23 11 4 6 4 359 354 352
Height
801 799 798 796 795 793 791 790 788 787 785 784 783 782 780 779 778 777 776 774 774 772 771 770 769 768 767 766 766 766 766 765 764 764 762 753 751 754 756 758 760 762 764 766 768 770 774 776 777 778 781 783 785 786 785 784 784 790 800 808 811 812 804 791 789 788 787 789 790 789 786 789 792 790 785 785 790 792 793 792 790 790 788 790 793 797 802 806
801 799 797 795 794 792 791 789 787 786 785 783 782 781 779 778 777 776 774 773 773 771 770 769 768 767 766 766 766 766 765 764 764 762 754 748 750 752 754 757 759 761 762 765 766 767 772 776 777 778 781 785 787 786 788 785 785 794 801 807 809 803 792 782 782 781 781 786 788 788 786 787 790 789 787 792 799 796 798 798 795 797 796 794 795 799 804 806
800 798 796 795 793 792 790 788 787 785 784 783 781 780 778 777 776 775 774 773 772 771 770 769 768 767 766 766 765 765 765 764 762 756 747 745 748 750 753 756 758 760 761 764 766 767 769 772 775 778 782 787 787 787 790 787 787 793 799 808 802 790 785 779 778 778 778 780 785 789 786 788 788 786 788 794 800 799 800 799 797 801 800 798 798 800 803 805
799 798 796 794 792 791 789 787 786 784 783 782 780 779 778 776 775 774 773 772 771 770 769 769 768 767 766 766 766 765 765 764 757 748 745 745 746 749 752 755 757 760 762 764 767 769 770 773 776 778 783 790 788 788 792 789 789 791 796 803 792 783 786 779 776 777 776 778 783 788 787 789 787 784 788 792 800 803 798 793 793 797 797 798 799 799 803 805
799 797 795 793 791 790 788 787 785 783 782 780 779 778 777 775 774 772 771 771 770 770 769 768 767 766 767 766 766 765 765 766 754 744 746 745 745 748 751 754 757 760 762 765 768 770 771 774 776 780 785 790 791 791 793 786 785 792 791 790 784 783 786 779 775 776 776 779 783 787 788 788 786 786 788 788 796 798 792 789 789 791 792 794 797 799 802 804
798 796 794 792 790 789 787 786 784 782 781 779 778 777 775 774 773 771 770 770 769 769 768 768 767 767 766 766 766 765 765 763 750 744 746 745 746 749 751 755 758 760 762 765 767 770 772 775 778 783 786 790 793 793 791 784 783 794 790 783 781 781 783 777 775 776 776 780 785 787 785 784 788 790 787 787 791 789 784 785 787 789 790 792 795 799 802 804
798 795 794 792 790 788 786 785 783 781 780 778 777 775 774 772 771 770 769 768 768 768 767 767 767 766 766 766 766 765 766 758 746 746 747 746 748 749 753 755 758 761 762 764 767 770 772 776 780 783 787 790 792 791 788 784 783 793 792 783 779 777 778 775 774 776 776 780 782 782 784 785 790 790 787 789 788 785 783 783 785 789 791 793 796 799 802 804
797 795 793 791 789 787 785 783 782 780 779 777 776 774 773 771 769 769 768 767 767 767 766 766 766 766 766 766 765 766 764 754 745 747 747 747 750 750 753 755 758 761 762 765 766 769 772 777 780 781 788 790 789 789 786 786 787 790 789 781 777 775 773 771 774 777 777 779 779 781 787 788 786 786 788 790 787 784 783 784 786 789 793 795 797 799 802 804
796 794 792 790 788 786 784 782 781 779 777 776 774 773 771 769 768 767 766 766 766 766 765 765 765 765 765 766 767 765 757 748 745 747 747 748 750 751 753 754 758 760 762 766 765 769 772 776 778 777 785 786 785 786 784 789 791 785 783 779 777 775 771 771 775 777 778 778 779 785 790 789 784 785 791 789 785 785 783 785 788 790 795 796 798 799 801 803
795 793 791 789 787 785 783 781 779 777 776 774 772 771 769 767 766 765 765 765 765 764 764 764 764 764 765 765 767 763 751 745 746 747 748 749 750 752 754 754 757 759 761 765 766 768 770 773 774 773 779 782 783 784 783 788 786 778 778 777 775 774 770 770 775 777 779 780 780 786 792 790 785 789 795 789 783 784 785 789 789 792 796 796 798 799 800 803
794 792 790 788 786 784 782 780 778 776 774 772 770 768 766 765 764 763 763 763 763 763 763 763 763 764 764 765 767 760 747 746 747 747 749 749 750 751 753 754 756 758 761 764 766 767 768 770 770 772 780 781 782 784 781 781 778 775 776 777 775 774 773 773 777 779 780 783 781 783 792 792 788 792 793 786 784 784 786 791 791 793 796 796 798 799 801 803
793 791 789 787 785 783 780 779 776 774 772 770 768 766 764 762 761 761 761 762 762 762 763 763 764 764 764 766 765 755 746 747 747 747 749 749 751 752 752 754 755 757 759 762 765 766 768 769 769 776 780 779 783 786 781 775 775 775 775 781 781 778 780 779 779 780 780 785 780 782 797 799 794 793 787 783 784 785 788 792 793 794 796 797 799 800 801 803
792 790 788 786 784 781 779 777 775 773 770 768 766 763 761 760 759 759 759 760 760 762 762 762 763 763 764 763 755 748 747 748 747 748 749 750 752 752 754 755 756 758 759 761 764 766 768 769 770 775 776 778 785 783 776 773 775 777 776 782 786 787 790 783 779 781 782 785 778 784 805 803 793 790 784 782 784 787 791 793 794 795 796 797 798 800 802 803
791 789 787 784 782 780 778 776 774 772 769 767 764 761 759 757 757 756 757 758 759 761 762 762 763 763 765 758 748 746 748 747 748 748 749 750 752 753 755 756 758 760 761 763 765 766 768 769 770 773 774 777 780 777 778 779 778 780 781 784 791 796 795 784 781 784 787 786 776 787 808 800 788 787 784 783 784 788 793 794 794 795 796 797 798 800 802 802
789 788 786 783 781 779 776 774 772 770 768 765 763 760 757 756 755 754 755 757 759 761 761 763 764 764 765 757 746 747 747 746 747 747 748 749 751 753 754 756 759 760 762 764 765 767 768 769 773 777 777 774 776 782 788 787 782 785 790 794 797 799 797 788 783 784 789 787 779 791 808 798 786 785 782 783 784 788 794 794 794 795 795 797 797 799 801 801
788 786 784 782 780 778 775 773 771 769 766 764 762 759 757 756 754 754 756 757 759 761 762 764 763 764 765 756 746 746 747 746 746 746 747 748 749 751 753 756 759 761 763 765 766 767 768 771 774 777 778 779 783 789 794 795 792 790 793 797 798 799 801 796 788 782 784 788 787 792 801 796 787 784 781 783 785 788 794 795 795 795 795 796 797 798 800 802
787 785 783 781 779 777 774 772 770 768 766 764 762 759 758 757 755 756 757 759 761 762 763 764 763 765 760 748 746 748 746 746 745 745 746 747 749 751 752 757 759 762 764 765 767 768 769 772 775 778 780 784 787 791 801 808 804 798 795 795 797 798 800 800 795 786 782 789 793 793 797 795 788 785 783 783 785 789 793 795 795 795 795 795 796 798 799 801
786 784 782 780 778 775 773 771 769 766 765 764 762 761 760 759 759 758 758 760 762 762 764 764 764 767 761 748 748 749 746 745 745 745 746 747 750 751 752 755 758 762 766 768 769 770 772 774 777 783 786 788 789 794 805 809 802 800 798 796 798 797 797 799 795 787 784 790 795 797 800 795 789 787 786 784 784 788 791 792 793 794 794 794 795 797 798 799
785 783 780 778 776 774 772 770 768 766 764 763 763 762 761 761 761 760 760 761 762 763 764 764 762 765 761 752 748 746 744 744 744 744 745 746 749 752 752 754 757 762 769 773 773 772 773 777 783 789 792 791 791 792 795 795 792 794 796 797 801 800 797 794 790 783 783 792 796 798 799 794 790 789 787 785 783 787 790 791 793 793 793 794 794 796 796 798
784 781 779 777 775 773 771 769 768 766 764 763 762 762 763 764 764 763 761 760 760 759 759 759 758 758 755 751 747 746 744 743 744 744 744 745 747 752 754 755 759 765 769 774 776 772 772 783 790 791 791 788 787 786 785 786 787 791 794 797 800 802 799 790 786 780 779 792 796 792 793 792 789 788 786 785 785 788 791 792 793 793 792 792 793 794 795 796
782 780 778 775 773 771 770 768 767 765 764 762 761 762 765 768 769 769 765 759 755 754 755 754 754 754 751 748 747 747 747 746 744 743 744 744 746 753 757 758 765 771 771 771 774 771 774 787 790 785 784 782 782 783 783 785 788 790 794 798 800 802 798 787 784 780 778 791 795 788 793 793 787 787 784 784 788 789 788 789 790 790 791 790 791 792 793 794
781 779 776 774 772 770 768 767 766 764 764 762 762 763 765 766 768 767 766 764 756 751 753 753 753 753 748 746 747 747 751 752 748 744 744 745 747 755 759 761 768 773 772 771 775 779 784 789 785 780 779 780 783 783 784 787 789 792 794 799 802 800 795 787 784 781 780 790 794 790 795 792 784 783 782 782 785 785 782 782 784 786 789 789 789 790 791 793
780 777 775 772 770 768 767 766 765 764 763 763 762 763 765 765 764 763 764 767 761 752 752 753 753 752 748 747 745 746 752 754 753 748 743 745 750 754 758 763 768 771 773 774 777 787 792 786 778 776 778 781 785 784 785 788 789 793 795 800 802 797 795 793 787 784 783 787 789 789 793 790 783 782 782 779 778 779 779 780 782 784 786 785 785 787 789 792
778 775 773 770 768 767 765 764 764 763 763 762 763 763 764 763 762 762 762 767 765 755 750 750 750 750 748 745 743 746 751 751 751 748 742 746 752 755 757 762 768 772 774 774 776 784 786 778 772 775 778 781 784 786 787 790 792 792 793 797 798 794 794 793 789 786 784 784 782 788 799 794 785 786 783 778 777 778 780 782 785 784 783 783 785 786 787 788
776 774 771 769 767 765 763 763 762 763 763 762 763 763 763 762 761 760 762 770 770 758 750 749 749 748 744 743 744 745 748 748 747 745 742 743 750 755 759 760 765 774 775 774 777 781 779 772 770 776 779 781 785 787 786 790 795 795 790 789 791 790 790 790 790 790 794 794 782 787 807 803 790 789 785 779 780 781 780 782 785 784 783 784 786 786 785 786
775 773 770 768 766 763 762 762 761 762 762 761 762 762 762 761 760 759 764 776 775 759 752 753 751 748 744 745 744 744 752 753 744 741 742 742 744 750 760 762 764 771 773 773 776 778 775 770 769 775 778 780 785 787 784 785 796 800 788 781 784 786 788 790 792 796 802 800 784 783 802 806 797 792 785 781 783 782 780 781 781 782 783 783 784 783 783 784
774 771 769 767 764 762 762 761 762 762 761 762 762 761 761 760 759 758 766 784 780 760 755 755 751 748 745 746 743 748 761 757 744 744 743 744 744 746 759 766 765 768 767 771 781 778 770 770 772 774 777 782 787 788 782 780 793 798 784 778 783 784 786 790 793 799 798 793 788 785 792 804 803 793 784 781 785 786 783 782 779 778 779 780 780 780 780 781
772 770 767 765 764 763 762 762 763 761 761 762 760 760 760 758 759 759 772 791 780 757 755 754 748 745 744 745 744 749 756 752 752 755 744 743 748 747 758 764 764 766 763 771 785 778 767 771 773 773 779 784 783 780 776 777 787 788 777 776 779 780 784 787 792 798 796 796 801 793 791 807 807 792 785 784 789 791 785 779 777 774 775 776 777 777 776 777
771 768 766 764 763 763 762 763 762 761 762 761 759 760 758 757 759 763 779 790 772 755 756 752 748 748 746 747 749 750 750 750 756 757 746 747 750 749 760 763 761 766 765 769 777 772 766 768 767 770 779 779 774 770 770 775 780 776 773 774 776 779 783 786 792 794 795 804 806 794 792 808 810 796 793 794 792 790 780 774 772 770 771 771 772 773 773 774
769 766 764 763 763 763 763 762 761 761 761 759 760 758 756 759 764 775 790 787 769 760 755 752 752 752 751 754 755 754 753 753 754 754 754 757 755 753 759 760 760 766 767 768 771 770 766 764 764 768 773 771 766 766 766 768 770 770 774 777 781 786 784 788 793 790 801 810 799 789 789 799 808 801 796 795 787 779 774 772 770 767 767 767 767 768 769 770
767 765 764 762 762 763 762 762 760 761 760 759 759 756 757 764 771 786 793 777 767 764 757 756 756 753 755 759 761 759 758 760 759 758 764 767 766 766 768 768 769 771 774 774 774 772 768 766 769 768 767 768 767 766 766 766 766 770 776 780 788 795 793 797 799 796 813 815 795 791 791 794 808 806 797 791 781 775 774 772 768 764 763 763 763 764 764 766
766 764 763 762 762 762 761 761 760 760 760 759 758 757 762 773 781 791 787 772 771 771 763 762 759 756 757 760 766 767 764 768 768 767 774 778 781 783 786 789 789 785 786 786 782 777 773 772 773 769 765 768 770 769 769 770 771 775 781 785 797 809 810 813 814 812 818 810 795 797 795 795 804 800 794 790 781 777 774 768 765 762 760 760 759 760 760 762
765 763 762 761 761 761 760 760 759 760 759 758 758 759 766 782 791 791 783 776 776 769 763 764 762 761 760 763 771 772 771 777 776 775 779 782 788 792 792 793 793 790 790 792 789 785 782 778 774 773 770 769 772 774 775 777 779 781 784 787 800 814 819 825 828 825 820 805 794 796 794 796 801 795 789 787 781 777 771 765 761 757 758 758 756 757 757 759
765 763 763 761 761 761 760 760 759 759 758 757 759 763 774 790 794 787 782 780 774 766 764 767 765 763 765 769 773 772 777 785 782 781 784 786 794 800 797 792 791 792 791 792 795 794 795 791 783 782 780 774 775 778 779 781 781 780 778 779 789 798 806 816 819 816 813 805 798 797 793 794 800 796 787 781 778 774 770 766 760 756 755 754 755 758 758 759
765 764 763 762 762 761 760 760 759 758 758 757 763 774 787 798 796 789 786 780 774 770 769 768 767 768 772 775 775 771 775 784 785 787 792 797 804 808 806 800 795 796 796 796 799 799 800 799 789 783 781 778 779 777 775 779 781 780 777 778 785 786 788 799 805 801 800 804 803 799 793 791 792 788 780 778 777 772 770 767 764 763 760 755 756 758 758 758
765 764 764 763 762 761 760 760 758 758 758 758 769 787 795 797 795 791 785 776 774 775 772 771 774 778 780 781 781 777 773 779 787 792 798 804 808 809 809 804 798 799 800 800 802 802 803 801 792 784 778 775 778 777 773 778 782 780 779 783 785 782 781 791 804 803 797 802 807 803 801 800 793 785 780 780 779 775 774 772 770 770 767 763 761 757 756 755
765 764 765 764 762 761 760 760 758 759 758 760 776 793 793 790 789 787 782 775 774 774 773 780 785 787 789 790 793 789 779 782 790 796 804 808 808 810 810 805 799 799 801 801 803 804 804 802 795 790 785 776 774 775 773 774 779 780 782 784 781 782 783 786 800 810 805 807 813 814 817 817 810 802 791 786 786 783 781 779 776 773 770 769 767 762 757 753
765 765 765 765 763 762 760 759 759 758 758 766 783 791 789 788 785 782 780 777 775 774 778 787 790 790 792 794 801 798 788 790 797 801 808 812 812 811 812 808 801 798 799 798 800 804 805 804 798 792 792 785 774 775 779 778 776 778 781 783 783 787 789 787 797 809 810 815 821 821 823 822 820 816 805 798 796 791 787 784 780 777 775 773 770 765 760 753
765 766 769 768 764 762 762 761 760 758 763 779 793 792 788 787 783 780 780 778 777 778 783 789 789 791 795 796 802 802 796 799 805 808 812 817 816 810 810 811 805 801 800 796 800 806 804 806 804 793 790 790 784 789 803 800 786 781 784 788 789 791 792 792 796 800 801 814 825 825 828 825 817 812 809 806 802 796 794 791 785 783 780 777 773 767 761 753
768 770 773 769 765 764 763 761 761 765 774 788 794 791 788 787 784 781 778 777 779 780 786 790 790 794 798 798 800 803 804 806 809 812 816 819 818 811 809 812 809 805 802 798 802 806 804 807 810 800 792 797 804 809 816 814 803 799 802 807 807 802 798 796 801 805 802 807 816 823 835 833 814 806 807 806 802 798 797 795 789 786 782 778 774 769 762 753
771 775 776 769 766 766 763 764 772 779 786 791 792 791 788 787 787 785 780 779 781 782 786 791 793 797 799 801 802 803 807 812 813 815 819 820 821 817 811 810 811 808 804 803 805 806 807 809 812 812 809 813 819 816 811 811 811 811 814 819 818 813 808 803 805 812 811 810 813 820 836 834 811 803 806 803 801 800 798 796 792 788 784 780 775 769 764 757
775 782 780 771 769 766 765 776 785 788 791 794 795 793 790 789 791 790 786 784 784 785 787 790 795 800 801 802 805 804 808 815 817 818 820 821 822 820 814 810 809 806 805 810 812 807 808 812 813 818 821 820 818 814 810 810 810 811 814 819 818 816 818 815 812 815 818 821 819 817 830 830 810 802 804 802 802 801 797 796 794 790 787 783 778 771 766 761
781 785 779 773 771 766 771 788 793 791 794 795 794 794 793 794 796 793 791 790 789 790 792 796 798 801 803 803 804 806 810 816 820 820 820 821 820 817 815 810 806 806 807 813 814 806 809 817 818 818 821 817 812 812 814 811 812 816 818 820 820 819 820 819 816 818 823 829 825 820 828 827 808 801 804 802 802 801 797 795 793 791 789 785 780 775 769 765
787 787 781 776 773 768 778 796 798 797 800 797 797 798 795 796 799 798 798 798 797 796 799 802 801 801 804 805 806 810 812 816 822 822 820 822 820 815 813 810 807 808 809 812 813 807 813 826 823 819 826 826 819 818 818 817 821 827 826 825 824 821 819 817 817 818 824 833 832 826 828 823 808 804 805 803 804 803 800 797 793 791 790 786 783 778 773 771
788 788 786 782 776 775 787 798 798 800 803 802 803 804 801 800 800 801 801 801 801 801 803 805 804 804 806 806 809 813 812 813 819 822 821 822 820 815 814 812 811 810 808 808 809 806 817 832 827 820 826 832 830 830 829 829 832 833 831 829 826 824 821 818 820 824 828 834 832 826 825 821 812 810 810 808 808 808 805 801 796 793 791 789 786 782 779 776
789 793 795 790 785 787 795 799 798 800 803 804 807 809 808 807 803 800 800 801 803 803 805 807 806 806 809 810 814 818 817 815 818 821 822 823 821 819 817 815 813 812 808 807 808 809 821 835 834 828 829 832 835 836 834 835 837 836 836 833 829 828 825 820 823 829 832 832 828 824 827 825 818 817 818 814 813 813 811 807 803 800 796 792 790 787 784 782
793 801 805 801 797 798 800 802 802 803 804 806 810 813 814 812 809 804 802 804 806 805 807 810 809 809 811 814 818 823 823 821 820 823 826 826 823 821 818 816 816 814 810 809 810 813 824 835 835 834 835 836 837 836 833 834 836 837 837 835 831 829 827 824 825 827 828 831 828 824 828 830 824 823 824 820 817 817 815 813 811 807 802 798 794 791 788 785
798 804 808 805 806 809 808 807 807 806 805 807 811 815 816 814 813 812 808 806 807 807 809 814 815 814 814 815 818 824 827 827 827 828 828 827 826 823 820 818 818 817 814 814 814 816 827 837 836 835 838 838 837 836 835 835 836 836 836 835 833 830 829 828 827 825 826 830 827 824 827 828 826 826 826 822 819 818 817 816 814 810 806 802 799 795 792 791
801 805 806 805 808 812 812 810 809 808 808 809 813 817 818 817 816 816 814 811 811 811 813 817 819 817 816 815 817 824 827 828 831 831 828 828 829 828 827 824 821 819 817 818 819 821 828 836 836 836 840 841 838 838 838 837 838 837 835 833 832 830 828 829 827 825 825 826 825 825 827 826 825 826 825 822 820 818 817 816 814 812 810 807 804 802 799 797
804 806 806 805 808 811 811 811 811 810 811 813 816 818 819 819 818 817 816 815 816 815 814 818 821 819 818 817 817 821 823 823 826 828 827 829 830 829 830 829 827 823 821 822 823 824 829 836 837 837 841 843 841 839 839 839 839 838 835 833 832 830 828 828 826 824 825 826 827 827 826 825 824 823 822 821 820 819 818 818 816 815 814 810 808 806 804 801
806 808 807 806 811 814 814 814 815 814 815 817 819 820 820 820 821 820 818 817 818 817 815 818 821 820 820 820 820 822 822 820 821 822 821 824 825 825 826 828 828 826 825 827 827 824 828 836 838 837 839 843 844 842 841 838 838 840 838 835 834 832 829 829 827 826 827 829 830 828 827 827 826 823 822 822 821 821 821 821 820 818 816 814 812 809 806 803
806 809 808 807 813 818 818 817 818 819 820 820 820 820 821 821 821 821 820 819 818 818 817 818 819 819 821 822 822 820 819 819 819 819 819 820 821 822 825 827 828 827 827 829 831 831 831 833 838 839 837 841 844 844 841 837 837 840 839 837 836 833 831 830 826 824 826 829 831 832 830 830 829 826 825 824 823 824 823 822 821 820 818 816 814 811 808 805